User: anonymous   Login
Location: Newark
(40.4500°N, 15.1500°E)
Time: 14:31:22
(UTC+00:00)
Language:

SPROUT - Orbit

View from above orbital plane
View from above orbital plane
View from above satellite
View from above satellite

Ground track
Ground track

The orbit data is extracted from the following two-line orbital elements,

1 39770U 14029E   20049.02203541  .00000529  00000-0  64242-4 0  9992
2 39770  97.8892 155.8987 0009221  11.1227 349.0187 14.87613007311152
Epoch (UTC): 18 February 2020 00:31:43
Eccentricity: 0.0009221
inclination: 97.8892°
perigee height: 599 km
apogee height: 612 km
right ascension of ascending node: 155.8987°
argument of perigee: 11.1227°
revolutions per day: 14.87613007
mean anomaly at epoch: 349.0187°
orbit number at epoch: 31115

The dashed part of the orbit path shows where the satellite is in the earth's shadow,  

DLR